EW4983 Weather Reports


Display with metric or nautical units.
time (UTC)temp
F
wind
direction
speed
MPH
gust
MPH
rain 1hr
in
rain 24hr
in
rain mn
in
humidity
%
barometer
mb
20260906173009 96 10 3.0 9.0 0.00 0.00 0.00 42 1012.2
20260906171512 99 40 3.0 7.0 0.00 0.00 0.00 39 1012.5
20260906170004 99 132 2.0 8.0 0.00 0.00 0.00 41 1012.7
20260906164603 98 105 1.0 4.0 0.00 0.00 0.00 42 1012.8
20260906163106 97 136 1.0 7.0 0.00 0.00 0.00 45 1012.8
20260906161600 94 136 2.0 5.0 0.00 0.00 0.00 47 1012.9
20260906160053 94 134 3.0 7.0 0.00 0.00 0.00 50 1012.9
20260906154549 93 136 0.0 5.0 0.00 0.00 0.00 50 1012.9
20260906153046 91 133 2.0 5.0 0.00 0.00 0.00 53 1012.8
20260906151543 91 132 1.0 4.0 0.00 0.00 0.00 54 1012.9
20260906150049 90 132 1.0 3.0 0.00 0.00 0.00 54 1012.9
20260906144540 88 132 1.0 3.0 0.00 0.00 0.00 56 1012.8
20260906143036 86 132 2.0 4.0 0.00 0.00 0.00 57 1012.7
20260906141529 84 133 1.0 4.0 0.00 0.00 0.00 63 1012.7
20260906140035 81 132 1.0 5.0 0.00 0.00 0.00 69 1012.8
20260906134522 80 132 2.0 4.0 0.00 0.00 0.00 71 1012.6
20260906133020 78 132 1.0 3.0 0.00 0.00 0.00 75 1012.6
20260906131520 76 132 0.0 3.0 0.00 0.00 0.00 78 1012.6
20260906130020 74 132 1.0 5.0 0.00 0.00 0.00 80 1012.3
20260906124515 73 133 1.0 2.0 0.00 0.00 0.00 82 1012.1
20260906123018 72 133 1.0 3.0 0.00 0.00 0.00 84 1011.9
20260906121524 71 133 0.0 1.0 0.00 0.00 0.00 84 1011.7
20260906120010 71 133 0.0 1.0 0.00 0.00 0.00 84 1011.5
20260906114508 71 133 0.0 0.0 0.00 0.00 0.00 83 1011.6
20260906113021 72 133 0.0 0.0 0.00 0.00 0.00 82 1011.5
20260906111503 72 133 0.0 1.0 0.00 0.00 0.00 80 1011.3
20260906110002 73 133 0.0 1.0 0.00 0.00 0.00 79 1011.3
20260906104504 73 133 0.0 1.0 0.00 0.00 0.00 79 1011.2
20260906103100 73 133 0.0 1.0 0.00 0.00 0.00 81 1011.2
20260906101600 72 133 0.0 0.0 0.00 0.00 0.00 83 1011.1
20260906100058 73 133 0.0 1.0 0.00 0.00 0.00 81 1011.0
20260906094559 73 133 0.0 2.0 0.00 0.00 0.00 81 1011.0
20260906093058 73 133 1.0 2.0 0.00 0.00 0.00 81 1010.9
20260906091555 73 133 0.0 2.0 0.00 0.00 0.00 80 1011.0
20260906090105 73 133 0.0 1.0 0.00 0.00 0.00 79 1011.0
20260906084552 73 133 0.0 1.0 0.00 0.00 0.00 78 1010.9
20260906083051 74 133 0.0 1.0 0.00 0.00 0.00 78 1010.9
20260906081556 74 133 0.0 1.0 0.00 0.00 0.00 78 1010.8
20260906080047 74 133 0.0 3.0 0.00 0.00 0.00 77 1010.8
20260906074604 75 133 1.0 2.0 0.00 0.00 0.00 77 1010.7
20260906073043 76 133 0.0 1.0 0.00 0.00 0.00 75 1010.7
20260906071542 76 133 0.0 2.0 0.00 0.00 0.00 73 1010.8
20260906070041 76 133 0.0 2.0 0.00 0.00 0.00 73 1010.8
20260906064540 76 133 1.0 3.0 0.00 0.00 0.00 75 1011.0
20260906063038 76 133 0.0 2.0 0.00 0.00 0.00 75 1011.1
20260906061536 76 133 0.0 3.0 0.00 0.00 0.00 75 1011.2
20260906060035 76 133 1.0 7.0 0.00 0.00 0.00 74 1011.2
20260906054536 77 127 0.0 1.0 0.00 0.00 0.00 73 1011.1
20260906053034 77 127 0.0 1.0 0.00 0.00 0.00 71 1011.2
20260906051530 78 127 0.0 1.0 0.00 0.00 0.00 71 1011.2
20260906050033 78 127 0.0 1.0 0.00 0.00 0.00 69 1011.1
20260906044534 78 127 0.0 0.0 0.00 0.00 0.00 69 1011.1
20260906043026 79 127 0.0 1.0 0.00 0.00 0.00 69 1011.2
20260906041528 79 127 0.0 2.0 0.00 0.00 0.00 70 1011.3
20260906040028 79 127 1.0 2.0 0.00 0.00 0.00 70 1011.1
20260906034528 79 127 1.0 3.0 0.00 0.00 0.00 70 1011.0
20260906033037 79 127 0.0 2.0 0.00 0.00 0.00 69 1010.7
20260906031527 79 127 0.0 1.0 0.00 0.00 0.00 70 1010.5
20260906030022 80 127 0.0 3.0 0.00 0.00 0.00 68 1010.6
20260906024521 80 127 2.0 3.0 0.00 0.00 0.00 66 1010.3
20260906023024 80 127 1.0 2.0 0.00 0.00 0.00 71 1010.1
20260906021521 81 127 0.0 1.0 0.00 0.00 0.00 71 1010.0
20260906020020 82 127 0.0 1.0 0.00 0.00 0.00 68 1009.8
20260906014520 83 127 0.0 0.0 0.00 0.00 0.00 65 1009.5
20260906013021 84 127 0.0 1.0 0.00 0.00 0.00 64 1009.3
20260906011525 86 127 0.0 1.0 0.00 0.00 0.00 61 1009.3
20260906010019 87 127 0.0 0.0 0.00 0.00 0.00 55 1009.1
20260906004518 89 127 0.0 0.0 0.00 0.00 0.00 51 1009.1
20260906003018 92 127 0.0 0.0 0.00 0.00 0.00 49 1009.3
20260906001517 94 127 0.0 0.0 0.00 0.00 0.00 45 1009.3
20260906000017 95 127 0.0 1.0 0.00 0.00 0.00 43 1009.4
20260905234516 96 127 0.0 3.0 0.00 0.00 0.00 41 1009.4
20260905233015 97 128 0.0 4.0 0.00 0.00 0.00 41 1009.2
20260905231515 98 134 1.0 4.0 0.00 0.00 0.00 39 1009.1
20260905230014 100 39 2.0 4.0 0.00 0.00 0.00 35 1008.9
20260905224515 99 39 0.0 4.0 0.00 0.00 0.00 35 1009.1
20260905223012 100 43 1.0 6.0 0.00 0.00 0.00 35 1009.1
20260905221513 100 48 2.0 5.0 0.00 0.00 0.00 36 1009.3
20260905220009 101 88 2.0 6.0 0.00 0.00 0.00 36 1009.4
20260905214507 101 125 2.0 4.0 0.00 0.00 0.00 35 1009.5
20260905213007 100 130 1.0 4.0 0.00 0.00 0.00 34 1009.6
20260905211504 100 128 2.0 7.0 0.00 0.00 0.00 35 1009.9
20260905210002 100 134 2.0 8.0 0.00 0.00 0.00 32 1010.0
20260905204607 100 132 1.0 4.0 0.00 0.00 0.00 35 1010.3
20260905203116 100 115 2.0 4.0 0.00 0.00 0.00 34 1010.5
20260905201559 100 134 2.0 7.0 0.00 0.00 0.00 37 1010.7
20260905200059 98 182 2.0 6.0 0.00 0.00 0.00 38 1010.8
20260905194551 98 272 2.0 6.0 0.00 0.00 0.00 38 1010.9
20260905193049 98 118 1.0 7.0 0.00 0.00 0.00 38 1011.2
20260905191548 97 54 2.0 9.0 0.00 0.00 0.00 41 1011.5
20260905190047 98 34 1.0 6.0 0.00 0.00 0.00 42 1011.7
20260905184547 97 22 2.0 8.0 0.00 0.00 0.00 41 1011.9
20260905183045 95 59 1.0 6.0 0.00 0.00 0.00 42 1012.2
20260905181601 95 34 1.0 6.0 0.00 0.00 0.00 44 1012.3
20260905180043 97 107 2.0 6.0 0.00 0.00 0.00 40 1012.5
20260905174550 97 28 3.0 8.0 0.00 0.00 0.00 42 1012.7